[[{"header":{"parameterUnit":"m.s-1","parameterCategory":1,"la1":30.2991,"la2":30.254,"lo1":-89.0895,"lo2":-89.0444,"dy":0.0017,"dx":0.0017,"nx":28,"ny":28,"refTime":"2024-02-08T03:00:00:Z","depth":0,"parameterNumber":2,"parameterNumberName":"U-component_of_WINDS"},"data":[0,0,0,0,0,0,0,0,0,0,0,0,0,0,0,0,0,0,0,0,0,0,0,0,0,0,0,0,0,0,0,0,0,0,0,0,0,0,0,0,0,0,0,0,0,0,0,0,0,0,0,0,0,0,0,0,0,0,-4.0677,-4.0677,0,-4.0699,-4.0699,-4.0699,-4.0651,-4.0649,-4.0648,-4.0646,-4.0667,-4.0669,-4.0671,0,0,0,0,0,0,0,0,0,0,0,0,0,-4.0593,-4.0595,-4.0677,-4.0677,-4.0677,-4.0699,-4.0699,-4.0699,-4.0651,-4.0649,-4.0647,-4.0646,-4.0667,-4.0669,-4.0672,0,0,0,0,0,0,0,0,0,0,0,0,0,-4.0624,-4.0596,-4.0677,-4.0656,-4.0654,-4.0699,-4.0699,-4.0699,-4.0651,-4.0649,-4.0647,-4.0645,-4.0666,-4.0669,-4.0672,-4.0737,0,0,-4.0681,-4.0682,0,0,0,0,0,0,0,0,-4.0622,-4.0627,-4.0659,-4.0658,-4.0656,-4.067,-4.0677,-4.0712,-4.0652,-4.0653,-4.0646,-4.0643,-4.067,-4.0673,-4.0682,-4.0738,-4.0739,-4.0681,-4.0683,-4.0684,-4.0685,0,0,0,0,0,0,0,-4.062,-4.0626,-4.0685,-4.0659,-4.0657,-4.0645,-4.0647,-4.0684,-4.0674,-4.0652,-4.0649,-4.0652,-4.0669,-4.0679,-4.0682,-4.0739,-4.0681,-4.0684,-4.0686,-4.0687,-4.085,-4.0853,0,0,0,0,0,0,-4.0621,-4.0624,-4.0685,-4.0686,-4.0633,-4.0649,-4.0651,-4.0668,-4.0673,-4.0672,-4.0654,-4.065,-4.0675,-4.0678,-4.0682,-4.0759,-4.0684,-4.0687,-4.0689,-4.0848,-4.0851,-4.0854,0,0,0,0,0,0,-4.0619,-4.0627,-4.0684,-4.0654,-4.0661,-4.0653,-4.0672,-4.0669,-4.0679,-4.0675,-4.0673,-4.0666,-4.0673,-4.0678,-4.0724,-4.0759,-4.0689,-4.0691,-4.0845,-4.0849,-4.0852,-4.0912,0,0,0,0,0,0,-4.0617,-4.0626,-4.0651,-4.0655,-4.0662,-4.0725,-4.0674,-4.0671,-4.0685,-4.0679,-4.0686,-4.0685,-4.0672,-4.072,-4.0727,-4.0762,-4.0694,-4.0842,-4.0847,-4.0851,-4.0907,-4.0917,-4.0926,0,0,0,0,0,-4.0614,-4.0666,-4.0652,-4.066,-4.0693,-4.0727,-4.0731,-4.0716,-4.0688,-4.0712,-4.071,-4.0684,-4.0754,-4.0725,-4.0733,-4.0769,-4.0839,-4.0845,-4.0851,-4.0902,-4.0915,-4.0926,0,0,0,0,0,0,-4.0666,-4.0667,-4.0651,-4.0706,-4.0717,-4.0719,-4.0749,-4.073,-4.0749,-4.0743,-4.0723,-4.0724,-4.0774,-4.0776,-4.0743,-4.0832,-4.0792,-4.08,-4.0829,-4.0841,-4.085,-4.0848,-4.0696,0,0,0,0,0,-4.0684,-4.0712,-4.0711,-4.076,-4.0766,-4.0757,-4.0771,-4.0759,-4.0769,-4.0773,-4.0774,-4.0785,-4.0809,-4.0825,-4.0847,-4.0908,-4.0908,-4.0936,-4.0946,-4.0954,-4.096,-4.0992,-4.1005,-4.0872,-4.0872,-4.0872,0,0,-4.072,-4.0725,-4.0743,-4.077,-4.0777,-4.0806,-4.0761,-4.0794,-4.0815,-4.0778,-4.0821,-4.0822,-4.0833,-4.0886,-4.091,-4.089,-4.0997,-4.0961,-4.0968,-4.097,-4.0999,-4.1012,-4.1023,-4.0876,-4.0876,-4.0875,0,0,-4.0802,-4.0809,-4.085,-4.0858,-4.087,-4.0864,-4.0874,-4.0879,-4.0879,-4.0922,-4.0895,-4.092,-4.0963,-4.0971,-4.0981,-4.1069,-4.1046,-4.1077,-4.1127,-4.1158,-4.1169,-4.1178,-4.1208,-4.1219,-4.1083,-4.1083,-4.1084,0,-4.0846,-4.0889,-4.0873,-4.0908,-4.0921,-4.089,-4.0932,-4.094,-4.0958,-4.0968,-4.0945,-4.0998,-4.1003,-4.1058,-4.108,-4.1089,-4.11,-4.1075,-4.1169,-4.1177,-4.1186,-4.1214,-4.1226,-4.1087,-4.1087,-4.1086,-4.1086,0,-4.0943,-4.0973,-4.1005,-4.1024,-4.1041,-4.1079,-4.1069,-4.1087,-4.1074,-4.1071,-4.1115,-4.1121,-4.1143,-4.1156,-4.1143,-4.121,-4.1196,-4.1172,-4.1131,-4.1202,-4.1229,-4.124,-4.1092,-4.1091,-4.109,-4.1089,0,0,-4.1055,-4.1066,-4.1078,-4.1086,-4.1098,-4.1121,-4.1158,-4.1181,-4.1197,-4.1211,-4.1241,-4.1279,-4.1257,-4.1268,-4.1256,-4.1284,-4.1352,-4.1256,-4.1256,-4.1272,-4.1425,-4.1443,-4.1456,-4.1338,-4.134,-4.1342,-4.1424,0,-4.1135,-4.1199,-4.1187,-4.1249,-4.1277,-4.1249,-4.1281,-4.1292,-4.129,-4.1313,-4.1311,-4.1338,-4.1307,-4.1313,-4.134,-4.1338,-4.1382,-4.1333,-4.1365,-4.1367,-4.1362,-4.147,-4.1488,-4.1565,-4.1434,-4.1436,-4.1437,0,-4.1237,-4.1255,-4.1321,-4.1328,-4.1339,-4.1368,-4.1389,-4.1412,-4.1423,-4.142,-4.1434,-4.1417,-4.1454,-4.1415,-4.1465,-4.1432,-4.1445,-4.1446,-4.1449,-4.145,-4.1405,-4.1472,-4.1589,-4.16,-4.1454,-4.1452,-4.1451,0,-4.1311,-4.1353,-4.1397,-4.1405,-4.1415,-4.1436,-4.1441,-4.1451,-4.1466,-4.1484,-4.1493,-4.1516,-4.1527,-4.1545,-4.1535,-4.1507,-4.1587,-4.1546,-4.1585,-4.1585,-4.1601,-4.16,-4.172,-4.1613,-4.1612,-4.1612,-4.1612,0,-4.1401,-4.1441,-4.143,-4.1457,-4.1502,-4.1488,-4.1533,-4.1535,-4.1544,-4.1571,-4.1549,-4.1575,-4.156,-4.1585,-4.1578,-4.162,-4.1626,-4.1624,-4.1621,-4.1625,-4.1625,-4.1632,-4.1626,-4.1615,-4.1615,-4.1614,-4.1614,0,-4.149,-4.1485,-4.1531,-4.1537,-4.154,-4.1573,-4.1578,-4.1603,-4.1601,-4.1635,-4.1643,-4.1639,-4.1667,-4.1659,-4.1689,-4.1684,-4.1738,-4.1729,-4.1734,-4.1731,-4.1769,-4.1765,-4.1897,-4.1913,-4.1797,-4.1798,-4.1799,0,-4.1547,-4.1578,-4.1588,-4.1604,-4.1611,-4.1639,-4.1654,-4.1642,-4.1659,-4.1675,-4.1699,-4.1725,-4.1745,-4.1792,-4.1791,-4.1815,-4.1805,-4.185,-4.1808,-4.1812,-4.1804,-4.1802,-4.1805,-4.1857,-4.1859,-4.186,-4.1861,0,-4.1648,-4.1644,-4.1667,-4.169,-4.1709,-4.1726,-4.1741,-4.1756,-4.1745,-4.1765,-4.1794,-4.181,-4.1842,-4.1868,-4.189,-4.1895,-4.1876,-4.1874,-4.1884,-4.1887,-4.1888,-4.1887,-4.1755,-4.1871,-4.187,-4.1869,-4.1868,-4.1868,-4.1722,-4.1748,-4.1759,-4.1786,-4.1796,-4.1811,-4.1835,-4.1836,-4.186,-4.1885,-4.1877,-4.191,-4.1922,-4.1949,-4.1957,-4.1983,-4.1966,-4.198,-4.1984,-4.1987,-4.1991,-4.1886,-4.1987,-4.1987,-4.1986,-4.1986,-4.1986,0,-4.182,-4.1827,-4.1852,-4.1874,-4.1895,-4.1877,-4.1893,-4.1912,-4.1941,-4.1954,-4.1975,-4.2008,-4.2034,-4.2036,-4.2061,-4.2081,-4.2073,-4.2087,-4.2085,-4.2086,-4.2006,-4.1994,-4.2093,-4.2093,-4.2093,-4.2093,-4.2093,-4.2093,-4.1874,-4.1917,-4.1915,-4.1963,-4.1969,-4.2001,-4.2012,-4.2026,-4.2036,-4.2074,-4.2096,-4.2098,-4.2107,-4.2132,-4.2155,-4.2155,-4.2164,-4.2182,-4.2179,-4.2103,-4.2092,-4.2082,-4.207,-4.2184,-4.2184,-4.2257,-4.2257,-4.2258]},{"header":{"parameterUnit":"m.s-1","parameterCategory":1,"la1":30.2991,"la2":30.254,"lo1":-89.0895,"lo2":-89.0444,"dy":0.0017,"dx":0.0017,"nx":28,"ny":28,"refTime":"2024-02-08T03:00:00:Z","depth":0,"parameterNumber":3,"parameterNumberName":"V-component_of_WINDS"},"data":[0,0,0,0,0,0,0,0,0,0,0,0,0,0,0,0,0,0,0,0,0,0,0,0,0,0,0,0,0,0,0,0,0,0,0,0,0,0,0,0,0,0,0,0,0,0,0,0,0,0,0,0,0,0,0,0,0,0,1.3549,1.355,0,1.3591,1.3591,1.3592,1.3597,1.3597,1.3596,1.3596,1.364,1.3641,1.3643,0,0,0,0,0,0,0,0,0,0,0,0,0,1.3478,1.348,1.3549,1.355,1.355,1.3591,1.3591,1.3592,1.3597,1.3597,1.3596,1.3596,1.3639,1.3641,1.3643,0,0,0,0,0,0,0,0,0,0,0,0,0,1.3513,1.348,1.3549,1.3558,1.3559,1.359,1.3591,1.3592,1.3597,1.3597,1.3596,1.3596,1.3638,1.3641,1.3643,1.3669,0,0,1.365,1.3651,0,0,0,0,0,0,0,0,1.3511,1.3516,1.3556,1.3557,1.3559,1.3588,1.3582,1.3618,1.3597,1.3583,1.3596,1.3595,1.3623,1.3627,1.3636,1.3671,1.3673,1.365,1.3652,1.3653,1.3653,0,0,0,0,0,0,0,1.3509,1.3514,1.3566,1.3557,1.3558,1.3561,1.3565,1.3589,1.3606,1.3584,1.3584,1.3589,1.3624,1.3633,1.3637,1.3674,1.365,1.3652,1.3654,1.3654,1.3736,1.3737,0,0,0,0,0,0,1.3505,1.3512,1.3564,1.3567,1.3533,1.3563,1.3567,1.3579,1.3605,1.3609,1.359,1.3589,1.363,1.3634,1.3638,1.3673,1.3653,1.3655,1.3656,1.3736,1.3737,1.3738,0,0,0,0,0,0,1.3503,1.3509,1.3563,1.354,1.3547,1.3564,1.3578,1.358,1.359,1.361,1.3613,1.3596,1.3629,1.3635,1.3662,1.3674,1.3656,1.3658,1.3735,1.3736,1.3737,1.3741,0,0,0,0,0,0,1.3501,1.3509,1.3517,1.354,1.3548,1.3585,1.3578,1.3582,1.3594,1.3594,1.3617,1.362,1.3629,1.3659,1.3664,1.3677,1.366,1.3734,1.3735,1.3737,1.374,1.3742,1.3744,0,0,0,0,0,1.3498,1.3516,1.3518,1.3524,1.3559,1.3585,1.359,1.36,1.3595,1.3605,1.3618,1.3619,1.3672,1.3661,1.3668,1.3682,1.3733,1.3735,1.3737,1.3739,1.3741,1.3744,0,0,0,0,0,0,1.3494,1.3519,1.3521,1.3547,1.3564,1.3586,1.3599,1.3602,1.3621,1.362,1.3632,1.3637,1.3665,1.3676,1.3663,1.371,1.3702,1.3705,1.3702,1.3704,1.3707,1.3704,1.3662,0,0,0,0,0,1.3497,1.3515,1.3536,1.3556,1.3565,1.358,1.3592,1.3599,1.3617,1.3624,1.3639,1.3658,1.3679,1.3692,1.3712,1.3741,1.3748,1.3754,1.3757,1.3758,1.3761,1.3781,1.3784,1.3743,1.3743,1.3743,0,0,1.3501,1.3517,1.3527,1.3556,1.357,1.359,1.3586,1.3607,1.3622,1.3627,1.3654,1.3666,1.3688,1.3717,1.3731,1.3727,1.3774,1.376,1.3762,1.3764,1.3783,1.3787,1.379,1.3745,1.3744,1.3744,0,0,1.352,1.3532,1.3552,1.3567,1.3589,1.36,1.3605,1.3627,1.3636,1.3663,1.3668,1.3687,1.3722,1.3739,1.3751,1.378,1.3783,1.3786,1.3798,1.3817,1.382,1.3823,1.3835,1.3839,1.3789,1.3789,1.3789,0,1.3522,1.3552,1.3562,1.3583,1.3597,1.3603,1.3625,1.3639,1.3666,1.3676,1.3672,1.3719,1.3733,1.3768,1.3775,1.3785,1.3793,1.3784,1.3818,1.3821,1.3824,1.3837,1.3841,1.3789,1.3789,1.3789,1.3789,0,1.3555,1.3576,1.359,1.3617,1.3632,1.3653,1.3669,1.3683,1.3689,1.3701,1.3731,1.3749,1.3775,1.3783,1.3789,1.382,1.3817,1.3816,1.3808,1.3829,1.384,1.3845,1.379,1.379,1.379,1.379,0,0,1.357,1.3605,1.361,1.3624,1.365,1.3667,1.369,1.3715,1.3729,1.3748,1.3769,1.38,1.38,1.3815,1.3823,1.3839,1.3864,1.3836,1.3837,1.3842,1.3903,1.3905,1.391,1.3866,1.3867,1.3868,1.3902,0,1.3593,1.3633,1.3645,1.368,1.3701,1.3709,1.3729,1.3748,1.3761,1.3782,1.3796,1.3819,1.3815,1.3825,1.3842,1.3857,1.3877,1.3855,1.3888,1.3889,1.3883,1.3915,1.3917,1.3947,1.3906,1.3907,1.3907,0,1.3624,1.3645,1.3682,1.3709,1.3718,1.3736,1.3762,1.3781,1.3804,1.3813,1.3831,1.3838,1.3865,1.3856,1.3894,1.388,1.3894,1.3904,1.3906,1.391,1.39,1.3922,1.3957,1.3962,1.3914,1.3913,1.3913,0,1.3634,1.3671,1.3699,1.3711,1.3742,1.3755,1.3768,1.3791,1.3807,1.383,1.3841,1.3867,1.3881,1.3902,1.3917,1.3909,1.3956,1.3947,1.3965,1.3965,1.3974,1.3974,1.4014,1.3982,1.3981,1.3981,1.3981,0,1.3658,1.3681,1.3704,1.3721,1.3748,1.3763,1.3789,1.3804,1.3825,1.3846,1.3855,1.3875,1.3894,1.3917,1.3929,1.3961,1.3967,1.3976,1.3979,1.3976,1.3975,1.3986,1.3984,1.3983,1.3982,1.3982,1.3982,0,1.3673,1.3689,1.372,1.3748,1.3756,1.3775,1.38,1.3818,1.3832,1.386,1.3867,1.3889,1.3918,1.3935,1.3971,1.3979,1.4015,1.4016,1.4007,1.4009,1.4026,1.4025,1.4075,1.4084,1.4045,1.4045,1.4045,0,1.3687,1.3705,1.3736,1.3751,1.3765,1.3789,1.3806,1.3822,1.384,1.387,1.3885,1.3914,1.3938,1.3984,1.4004,1.4033,1.4036,1.4052,1.404,1.4038,1.4039,1.4038,1.4041,1.4054,1.4054,1.4055,1.4055,0,1.3712,1.3721,1.3744,1.3771,1.3791,1.3813,1.3836,1.3848,1.3869,1.3888,1.3918,1.3937,1.3975,1.4005,1.4035,1.4051,1.4058,1.4059,1.4065,1.4062,1.4057,1.4062,1.4014,1.4057,1.4057,1.4057,1.4057,1.4057,1.3728,1.3746,1.3771,1.3798,1.3817,1.3839,1.3858,1.3876,1.3901,1.3933,1.3942,1.3973,1.4,1.4042,1.4059,1.4086,1.4084,1.4091,1.4094,1.4096,1.4098,1.4052,1.4091,1.4091,1.4091,1.4091,1.4091,0,1.3756,1.3773,1.3798,1.383,1.3852,1.3856,1.3882,1.39,1.3928,1.3952,1.3977,1.4013,1.4043,1.4067,1.4098,1.4115,1.4119,1.4123,1.4122,1.4127,1.4096,1.4089,1.412,1.412,1.412,1.412,1.412,1.412,1.3772,1.3803,1.3815,1.3857,1.3875,1.3906,1.3921,1.3942,1.3962,1.4002,1.4027,1.4042,1.4068,1.4102,1.413,1.4137,1.4149,1.4153,1.416,1.4131,1.4128,1.4125,1.4119,1.4155,1.4155,1.4188,1.4189,1.4189]}]]